Regional Weather Roundup
Issued by NWS

Home | Current Version | Previous Version | Graphics & Text | Print | Product List | Glossary On
Versions: 1 2 3 4 5 6 7 8 9 10 11 12 13 14 15 16 17 18 19 20 21 22 23 24 25 26 27 28 29 30 31 32 33 34 35 36 37 38 39 40 41 42 43 44 45 46 47 48 49 50
000
ASUS43 KMPX 271710
RWRMN
WEATHER ROUNDUP FOR MINNESOTA
NATIONAL WEATHER SERVICE TWIN CITIES/CHANHASSEN MN
1200 PM CDT SUN JUL 27 2014


NOTE: "FAIR" INDICATES FEW OR NO CLOUDS BELOW 12,000 FEET WITH NO
SIGNIFICANT WEATHER AND/OR OBSTRUCTIONS TO VISIBILITY. N/A MEANS
CURRENT SKY AND/OR WEATHER CONDITIONS ARE NOT AVAILABLE.

MNZ060>063-068>070-271800-
   Twin Cities Metro

CITY           SKY/WX    TMP DP  RH WIND       PRES   REMARKS
TWIN CITIES    PTSUNNY   71  57  61 NW18      29.89R
ST PAUL        PTSUNNY   69  61  75 NW15      29.89R
CRYSTAL        LGT RAIN  69  56  62 N24G31    29.90R
LAKEVILLE      MOSUNNY   70  57  64 NW16G22   29.90R
EDEN PRAIRIE   CLOUDY    71  57  61 NW12G21   29.90R
SOUTH ST PAUL  PTSUNNY   67  61  79 NW12G17   29.89R
LAKE ELMO      PTSUNNY   68  63  83 NW12G17   29.89R
$$
MNZ001>005-007-008-013>017-022>024-027-028-271800-
   Northwest Minnesota

CITY           SKY/WX    TMP DP  RH WIND       PRES   REMARKS
BEMIDJI        PTSUNNY   67  60  76 N13       30.01R
HALLOCK        PTSUNNY   63  55  77 N15       30.11R
ROSEAU         PTSUNNY   63  55  77 N12       30.08R
WARROAD        CLOUDY    63  57  82 N12       30.08R
THIEF RVR FALL CLOUDY    63  57  82 N13       30.08R
CROOKSTON      CLOUDY    63  57  82 N18       30.09R
FOSSTON        CLOUDY    63  59  88 N15       30.06R
DETROIT LAKES  CLOUDY    61  59  94 NW15      30.06R
MOORHEAD       CLOUDY    64  63  94 NW14G21   30.09R
PARK RAPIDS    CLOUDY    65  59  81 N13G22    30.00R
$$
MNZ006-009>011-018-025>026-271800-
   North Central Minnesota

CITY           SKY/WX    TMP DP  RH WIND       PRES   REMARKS
BAUDETTE       CLOUDY    66  56  70 N14       30.05R
FLAG ISLAND    CLOUDY    63  54  72 N15       30.06R
INTL FALLS     CLOUDY    65  56  72 N12       30.01R
WASKISH        CLOUDY    64  57  77 NE8       30.03R
BIG FORK       CLOUDY    63  57  82 N10       29.99R
LONGVILLE      CLOUDY    66  61  82 N7        29.97R
GRAND RAPIDS   PTSUNNY   64  55  72 N12       29.95R
CRANE LAKE     CLOUDY    61  55  82 NE8       29.99R
ORR            CLOUDY    61  54  77 N6        29.96R
COOK           CLOUDY    63  57  82 N5        29.96R
$$
MNZ012-019>021-037-271800-
   Northeast Minnesota

CITY           SKY/WX    TMP DP  RH WIND       PRES   REMARKS
DULUTH         LGT RAIN  58  56  93 E14       29.91R VSB 1/2
ELY            CLOUDY    61  55  82 NE13      29.94R
HIBBING        CLOUDY    67  58  72 N14G21    29.93R
EVELETH        RAIN      61  59  94 N12G17    29.93R
DULUTH HARBOR  RAIN      55  54  94 NE23      29.91R
TWO HARBORS    CLOUDY    61  55  82 E9G17     29.89R
SILVER BAY     RAIN      57  57 100 NE8G16    29.89R
GRAND MARAIS     N/A     65  55  70 NE10G23   29.89R
G MARAIS ARPRT   N/A     57  50  77 N17G23    29.93R
$$
MNZ029>031-032-039>041-046>048-054>057-064-271800-
   West Central Minnesota

CITY           SKY/WX    TMP DP  RH WIND       PRES   REMARKS
FERGUS FALLS   CLOUDY    64  55  72 N17G26    30.06R
WHEATON        CLOUDY    63  55  77 NW20G29   30.08R
MORRIS         SUNNY     66  57  72 NW20G26   30.04R
ALEXANDRIA     CLOUDY    67  57  70 NW17G29   30.03R
ELBOW LAKE     CLOUDY    65  58  77 NW18G29   30.04R
WADENA         PTSUNNY   64  57  77 N12G24    30.00R
GLENWOOD       SUNNY     68  59  73 NW18G25   30.01R
APPLETON       CLOUDY    66  55  68 N21G28    30.05R
BENSON         CLOUDY    66  57  72 N21G28    30.03R
ORTONVILLE     CLOUDY    66  55  68 NW18G28   30.06R
MADISON        MOSUNNY   68  57  68 NW20      30.06R
WILLMAR        FAIR      70  57  64 NW25G32   30.01R
$$
MNZ033>034-036-042>043-049>051-058-059-271800-
   Central Minnesota

CITY           SKY/WX    TMP DP  RH WIND       PRES   REMARKS
ST CLOUD       CLOUDY    71  56  58 N13G24    29.92R
SAUK CENTRE    CLOUDY    67  58  71 NW20G28   29.99R
PAYNESVILLE    CLOUDY    66  57  73 W12G30    29.98R
AITKIN         PTSUNNY   72  61  68 N12       29.92R
PINE RIVER     PTSUNNY   68  59  73 N14G22    30.00R
BRAINERD       PTSUNNY   69  57  65 N12G22    29.95R
STAPLES        PTSUNNY   66  55  68 N16G26    29.98R
LONG PRAIRIE   PTSUNNY   68  59  73 NW14G20   29.98R
LITTLE FALLS   PTSUNNY   68  55  64 NW13G22   29.95R
LITCHFIELD     PTSUNNY   72  63  73 NW16G24   29.96R
BUFFALO        SUNNY     73  56  55 NW14G22   29.93R
MAPLE LAKE     PTSUNNY   73  59  62 NW17G24   29.94R
$$
MNZ037-044-045-052-053-271800-
   East Central Minnesota

CITY           SKY/WX    TMP DP  RH WIND       PRES   REMARKS
PRINCETON      MOSUNNY   73  59  60 N12G20    29.91R
MORA           PTSUNNY   68  55  64 N12G21    29.91
CAMBRIDGE      LGT RAIN  72  57  60 N14G20    29.88R
RUSH CITY      PTSUNNY   69  59  71 NW15G21   29.89R
MOOSE LAKE     PTSUNNY   66  61  82 N7        29.87R
HINCKLEY       CLOUDY    68  61  77 NW15G25   29.89R
CLOQUET        CLOUDY    57  55  94 E12       29.91R
MCGREGOR       CLOUDY    66  59  77 N10G17    29.92R
$$
MNZ071>073-080-081-089-090-097-098-271800-
   Southwest Minnesota

CITY           SKY/WX    TMP DP  RH WIND       PRES   REMARKS
MONTEVIDEO     CLOUDY    66  57  72 N22G31    30.04R
GRANITE FALLS  CLOUDY    65  58  77 NW20G26   30.05R
CANBY          CLOUDY    67  55  67 NW20G25   30.09R
MARSHALL       CLOUDY    64  54  68 NW20G28   30.05R
REDWOOD FALLS  CLOUDY    68  57  68 NW23G31   30.00R
OLIVIA         PTSUNNY   70  59  68 NW18G28   29.99R
PIPESTONE      CLOUDY    64  55  72 N16G26    30.10R
WINDOM         CLOUDY    66  55  68 NW18G24   30.04R
WORTHINGTON    CLOUDY    64  55  72 NW17G28   30.08R
JACKSON        CLOUDY    66  55  68 NW21G28   30.04R
TRACY          CLOUDY    65  57  77 NW18G28   30.06R
SLAYTON        CLOUDY    64  56  74 NW16G25   30.08R
$$
MNZ065>067-074>077-082>085-091>093-271800-
   South Central Minnesota

CITY           SKY/WX    TMP DP  RH WIND       PRES   REMARKS
MANKATO        CLOUDY    68  55  64 NW21G26   29.94R
NEW ULM        MOSUNNY   70  61  73 NW16G23   29.98R
ST JAMES       PTSUNNY   70  55  60 W18       30.00R
FAIRMONT       CLOUDY    70  55  60 NW24      30.00R
GLENCOE        PTSUNNY   71  56  58 NW17G25   29.94R
FARIBAULT      PTSUNNY   73  54  49 NW16G23   29.92R
OWATONNA       MOSUNNY   72  57  60 NW20G28   29.92R
WASECA         CLOUDY    64  54  68 NW14G25   29.95R
ALBERT LEA     CLOUDY    68  57  68 NW10G21   29.94R
$$
MNZ078>079-086>088-094>096-271800-
   Southeast Minnesota

CITY           SKY/WX    TMP DP  RH WIND       PRES   REMARKS
ROCHESTER      PTSUNNY   70  58  65 NW17G26   29.90R
RED WING       PTSUNNY   72  55  56 NW10G16   29.85R
STANTON        MOSUNNY   73  57  57 NW16G26   29.88R
DODGE CENTER   PTSUNNY   68  57  68 NW17      29.91R
WINONA         RAIN      68  59  73 NW16G28   29.85R
AUSTIN         PTSUNNY   70  57  64 NW21G31   29.91R
PRESTON        CLOUDY    68  61  78 NW17G26   29.89R
$$
ABBREVIATIONS USED IN REMARKS
   TC - TEMPERATURES IN CELSIUS
  WCI - WIND CHILL INDEX
   HX - HEAT INDEX
  VSB - VISIBILITY
$$


USA.gov is the U.S. government's official web portal to all federal, state and local government web resources and services.